#timestamp,LO_Frequency,Hit,StdDev 
1703426415.1,286047000.0,N
1703426435.9,286047001.7,N
1703426455.7,286047001.6,N
1703426475.5,286047002.3,N
1703426495.4,286047002.1,N
1703426515.2,286047003.9,N
1703426535.0,286047003.2,N
1703426535.9,286047003.2,N
1703426555.8,286047003.0,N
1703426575.6,286047004.3,N
1703426595.5,286047001.9,N
1703426615.3,286047001.7,N
1703426635.1,286047002.1,N
1703426655.9,286047002.3,N
1703426675.7,286046999.8,N
1703426695.6,286046999.7,N
1703426715.4,286046999.8,N
1703426735.2,286047002.8,N
1703426755.1,286047002.4,N
1703426756.0,286047002.4,N
1703426775.8,286046999.8,N
1703426795.7,286047002.5,N
1703426815.5,286047003.6,N
1703426835.3,286047002.5,N
1703426855.2,286047002.3,N
1703426875.0,286047001.3,N
1703426875.9,286047001.3,N
1703426895.7,286047003.9,N
1703426915.6,286047004.2,Y
1703426935.4,286047003.2,P
1703426955.3,286047001.3,N
1703426975.1,286047001.7,N
1703426976.0,286047001.7,N
1703426995.8,286047004.1,Y
1703427015.7,286046998.2,P
1703427035.5,286046998.7,N
1703427055.4,286046997.2,N
1703427075.2,286046997.4,N
1703427095.0,286046997.8,N
1703427095.9,286046997.8,N
1703427115.8,286046997.3,N
1703427135.6,286046999.1,N
1703427155.4,286046996.8,N
1703427175.3,286046998.7,N
1703427195.1,286046998.6,N
1703427215.9,286046997.0,N
1703427235.7,286046997.4,N
1703427255.5,286046997.1,N
1703427275.4,286046997.3,N
1703427295.2,286046997.2,N
1703427315.1,286046998.3,N
1703427316.0,286046998.3,N
1703427335.8,286047000.0,N
1703427355.6,286047002.0,N
1703427375.5,286047002.8,N
1703427395.3,286047001.2,N
1703427415.1,286047000.6,N
1703427435.9,286047000.9,N
1703427455.7,286047001.0,N
1703427475.6,286047001.0,N
1703427495.4,286047000.4,N
1703427515.2,286046998.8,N
1703427535.1,286046997.2,N
1703427536.0,286046997.2,N
1703427555.8,286046999.5,N
1703427575.6,286046999.1,N
1703427595.5,286046997.1,N
1703427615.3,286046997.3,N
1703427635.2,286046997.7,N
1703427655.9,286046999.2,N
1703427675.7,286046996.7,N
1703427695.6,286046999.2,N
1703427715.4,286046998.8,N
1703427735.3,286046998.3,N
1703427755.1,286046999.4,N
1703427775.8,286046998.2,N
1703427795.7,286047001.1,N
1703427815.5,286046999.0,N
1703427835.4,286047002.5,N
1703427855.2,286047000.5,N
1703427875.0,286047000.3,N
1703427875.9,286047000.3,N
1703427895.8,286047000.0,N
1703427915.6,286046999.7,N
1703427935.5,286047001.1,N
1703427955.3,286046998.5,N
1703427975.1,286046998.4,N
1703427995.9,286046998.6,N
1703428015.7,286046999.9,N
1703428035.5,286047000.6,N
1703428055.4,286046998.2,N
1703428075.2,286047001.1,N
1703428095.1,286047000.0,N
1703428096.0,286047000.0,N
1703428115.8,286046996.5,N
1703428135.6,286046996.9,N
1703428155.5,286046999.6,N
1703428175.3,286046998.6,N
1703428195.2,286046998.5,N
1703428215.9,286046999.1,N
1703428235.7,286046999.1,N
1703428255.6,286047000.8,N
1703428275.4,286046999.2,N
1703428295.2,286046997.0,N
1703428315.1,286046999.1,N
1703428316.0,286046999.1,N
1703428335.8,286046998.4,N
1703428355.7,286046999.2,N
1703428375.5,286046999.2,N
1703428395.3,286046999.5,N
1703428415.2,286046997.1,N
1703428435.9,286046999.3,N
1703428455.8,286046998.6,N
1703428475.6,286047001.1,N
1703428495.4,286046996.5,N
1703428515.3,286046997.3,N
1703428535.1,286046999.2,N
1703428555.8,286046999.1,N
1703428575.7,286046999.6,N
1703428595.5,286046999.5,N
1703428615.4,286046998.8,N
1703428635.2,286046998.1,N
1703428655.0,286047001.1,N
1703428655.9,286047001.1,N
1703428675.8,286047000.6,N
1703428695.6,286046999.9,N
1703428715.5,286047000.6,N
1703428735.3,286047000.7,N
1703428755.1,286047001.1,N
1703428775.9,286046999.9,N
1703428795.7,286047000.9,N
1703428815.5,286047000.7,N
1703428835.4,286046999.9,N
1703428855.2,286047001.8,N
1703428875.1,286047002.2,N
1703428876.0,286047002.2,N
1703428895.8,286047000.3,N
1703428915.6,286046999.8,N
1703428935.5,286046999.8,N
1703428955.3,286047002.3,N
1703428975.1,286047002.7,N
1703428995.9,286047000.6,N
1703429015.7,286047000.6,N
1703429035.6,286046998.7,N
1703429055.4,286046999.0,N
1703429075.2,286047001.1,N
1703429095.1,286047001.0,N
1703429096.0,286047001.0,N
1703429115.8,286046999.0,N
1703429135.6,286046998.6,N
1703429155.5,286046996.5,Y
1703429175.3,286046997.0,P
1703429195.2,286046998.3,N
1703429215.9,286046998.8,N
1703429235.7,286046998.5,N
1703429255.6,286046999.6,N
1703429275.4,286046999.1,N
1703429295.3,286047000.5,N
1703429315.1,286047000.8,N
1703429316.0,286047000.8,N
1703429335.8,286046998.4,N
1703429355.7,286047000.3,N
1703429375.5,286047002.6,N
1703429395.4,286047000.8,N
1703429415.2,286047000.5,N
1703429435.0,286046998.6,N
1703429435.9,286046998.6,N
1703429455.8,286046998.3,N
1703429475.6,286047001.0,N
1703429495.4,286046998.1,N
1703429515.3,286047000.8,N
1703429535.1,286047000.3,N
1703429555.9,286047002.4,N
1703429575.7,286047002.1,N
1703429595.5,286047002.8,N
1703429615.4,286047001.6,N
1703429635.2,286047002.8,N
1703429655.0,286047002.7,N
1703429655.9,286047002.7,N
1703429675.8,286046999.9,N
1703429695.6,286047001.0,N
1703429715.5,286047002.0,N
1703429735.3,286047004.3,N
1703429755.1,286047001.7,N
1703429775.9,286047002.3,N
1703429795.7,286047001.8,N
1703429815.5,286047001.4,N
1703429835.4,286047001.6,N
1703429855.2,286047002.3,N
1703429875.1,286047003.7,N
1703429876.0,286047003.7,N
1703429895.8,286047003.3,N
1703429915.6,286047003.8,N
1703429935.5,286047004.2,N
1703429955.3,286047001.4,N
1703429975.1,286047000.1,N
1703429995.9,286047002.3,N
